#timestamp,LO_Frequency,Hit 
1501851615.1,286046813.1,N
1501851635.8,286046818.2,N
1501851655.7,286046819.0,N
1501851675.5,286046817.4,N
1501851695.3,286046815.0,N
1501851715.2,286046812.0,N
1501851735.9,286046807.8,N
1501851755.7,286046808.9,N
1501851775.6,286046807.0,N
1501851795.4,286046804.9,N
1501851815.2,286046804.1,N
1501851835.1,286046804.3,N
1501851836.0,286046804.3,N
1501851855.8,286046801.5,N
1501851875.6,286046801.0,N
1501851895.4,286046799.2,N
1501851915.3,286046800.1,N
1501851935.1,286046801.9,N
1501851955.8,286046808.1,N
1501851975.7,286046807.0,N
1501851995.5,286046804.5,N
1501852015.3,286046804.5,N
1501852035.2,286046805.6,N
1501852055.9,286046802.0,N
1501852075.7,286046796.6,N
1501852095.6,286046798.0,N
1501852115.4,286046793.8,N
1501852135.2,286046794.0,N
1501852155.0,286046789.0,N
1501852156.0,286046789.0,N
1501852175.8,286046789.0,N
1501852195.6,286046791.0,N
1501852215.4,286046790.9,N
1501852235.3,286046791.3,N
1501852255.1,286046792.9,N
1501852275.8,286046788.9,N
1501852295.7,286046791.3,N
1501852315.5,286046793.6,N
1501852335.3,286046797.4,N
1501852355.2,286046797.7,N
1501852375.9,286046796.0,N
1501852395.7,286046802.2,N
1501852415.6,286046806.9,N
1501852435.4,286046802.9,N
1501852455.2,286046802.9,N
1501852475.0,286046802.3,N
1501852475.9,286046802.3,N
1501852495.8,286046799.2,N
1501852515.6,286046794.6,N
1501852535.4,286046790.4,N
1501852555.3,286046788.9,N
1501852575.1,286046787.7,N
1501852576.0,286046787.7,N
1501852595.8,286046795.3,N
1501852615.7,286046793.8,N
1501852635.5,286046800.4,N
1501852655.3,286046796.5,N
1501852675.1,286046796.8,N
1501852695.9,286046795.9,N
1501852715.7,286046794.6,N
1501852735.5,286046794.5,N
1501852755.4,286046794.5,N
1501852775.2,286046792.7,N
1501852795.0,286046790.6,N
1501852795.9,286046790.6,N
1501852815.8,286046787.0,N
1501852835.6,286046787.3,N
1501852855.4,286046790.7,N
1501852875.3,286046788.1,N
1501852895.1,286046787.6,N
1501852896.0,286046787.6,N
1501852915.8,286046787.5,N
1501852935.7,286046795.5,N
1501852955.5,286046791.3,N
1501852975.3,286046791.2,N
1501852995.1,286046791.2,N
1501853015.9,286046796.3,N
1501853035.7,286046796.7,N
1501853055.5,286046795.3,N
1501853075.4,286046800.9,N
1501853095.2,286046808.5,N
1501853115.0,286046803.6,N
1501853115.9,286046803.6,N
1501853135.8,286046802.0,N
1501853155.6,286046802.6,N
1501853175.4,286046801.9,N
1501853195.3,286046802.6,N
1501853215.1,286046801.2,N
1501853216.0,286046801.2,N
1501853235.8,286046795.0,N
1501853255.7,286046802.5,N
1501853275.5,286046799.8,N
1501853295.3,286046797.5,N
1501853315.1,286046793.5,N
1501853335.9,286046798.6,N
1501853355.7,286046796.9,N
1501853375.5,286046801.7,N
1501853395.4,286046797.5,N
1501853415.2,286046795.8,N
1501853435.0,286046797.9,N
1501853435.9,286046797.9,N
1501853455.8,286046796.0,N
1501853475.6,286046793.5,N
1501853495.4,286046799.6,N
1501853515.3,286046806.0,N
1501853535.1,286046811.3,N
1501853536.0,286046811.3,N
1501853555.8,286046803.5,N
1501853575.7,286046801.5,N
1501853595.5,286046806.0,N
1501853615.3,286046810.7,N
1501853635.1,286046812.8,N
1501853655.9,286046816.2,N
1501853675.7,286046810.6,N
1501853695.5,286046806.0,N
1501853715.4,286046799.8,N
1501853735.2,286046797.3,N
1501853755.0,286046795.9,N
1501853755.9,286046795.9,N
1501853775.8,286046797.1,N
1501853795.6,286046799.2,N
1501853815.4,286046798.2,N
1501853835.3,286046802.0,N
1501853855.1,286046803.3,N
1501853856.0,286046803.3,N
1501853875.8,286046798.5,N
1501853895.7,286046793.9,N
1501853915.5,286046790.6,N
1501853935.3,286046797.1,N
1501853955.1,286046797.4,N
1501853975.9,286046794.1,N
1501853995.7,286046794.5,N
1501854015.5,286046792.5,N
1501854035.4,286046792.4,N
1501854055.2,286046789.0,N
1501854075.0,286046787.8,N
1501854075.9,286046787.8,N
1501854095.8,286046784.1,N
1501854115.6,286046785.6,N
1501854135.4,286046784.5,N
1501854155.3,286046784.4,N
1501854175.1,286046784.7,N
1501854176.0,286046784.7,N
1501854195.8,286046780.5,N
1501854215.6,286046780.5,N
1501854235.5,286046777.4,N
1501854255.3,286046779.7,N
1501854275.1,286046781.6,N
1501854295.9,286046779.0,N
1501854315.7,286046782.2,N
1501854335.5,286046780.6,N
1501854355.4,286046782.0,N
1501854375.2,286046780.6,N
1501854395.0,286046783.4,N
1501854395.9,286046783.4,N
1501854415.8,286046779.0,N
1501854435.6,286046779.3,N
1501854455.4,286046778.6,N
1501854475.2,286046776.4,N
1501854495.1,286046775.6,N
1501854496.0,286046775.6,N
1501854515.8,286046773.6,N
1501854535.6,286046773.7,N
1501854555.5,286046769.7,N
1501854575.3,286046772.0,N
1501854595.1,286046769.3,N
1501854615.9,286046768.3,N
1501854635.7,286046770.0,N
1501854655.5,286046767.9,N
1501854675.4,286046770.3,N
1501854695.2,286046768.3,N
1501854715.0,286046767.8,N
1501854715.9,286046767.8,N
1501854735.8,286046771.9,N
1501854755.6,286046768.0,N
1501854775.4,286046769.1,N
1501854795.2,286046766.1,N
1501854815.1,286046767.6,N
1501854816.0,286046767.6,N
1501854835.8,286046763.2,N
1501854855.6,286046765.7,N
1501854875.5,286046762.9,N
1501854895.3,286046765.6,N
1501854915.1,286046761.6,N
1501854935.9,286046760.9,N
1501854955.7,286046760.7,N
1501854975.5,286046758.9,N
1501854995.4,286046756.7,N
1501855015.2,286046760.8,N
1501855035.0,286046760.1,N
1501855035.9,286046760.1,N
1501855055.8,286046761.0,N
1501855075.6,286046759.0,N
1501855095.4,286046757.9,N
1501855115.2,286046755.0,N
1501855135.1,286046755.2,N
1501855136.0,286046755.2,N
1501855155.8,286046753.3,N
1501855175.6,286046756.0,N
1501855195.5,286046753.7,N
